Port Angeles, WA

9:02 AM PST on December 04, 2016 (GMT -0800)
Fairchild International

Weather History for KCLM - December, 2012

Change the Weather History Date:

Sunday, December 23, 2012

  Actual Average Record
Temperature  
Mean Temperature 40 °F -  
Max Temperature 45 °F 44 °F 56 °F (1961)
Min Temperature 36 °F 34 °F 12 °F (1983)
Degree Days  
Heating Degree Days 24    
Moisture  
Dew Point 37 °F    
Average Humidity 86    
Maximum Humidity 97    
Minimum Humidity 74    
Precipitation  
Precipitation 0.00 in - - ()
Sea Level Pressure  
Sea Level Pressure 29.67 in    
Wind  
Wind Speed 4 mph (WSW)    
Max Wind Speed 12 mph    
Max Gust Speed -    
Visibility 10 miles    
Events Rain    
Averages and records for this station are not official NWS values.
T = Trace of Precipitation, MM = Missing Value Source: NWS Daily Summary

Daily Weather History Graph

Daily Weather History Graph

Search for Another Location

Airport or City:

Trip Planner

Search our weather history database for the weather conditions in past years. The results will help you decide how hot, cold, wet, or windy it might be!

Date:

Astronomy

Dec. 23, 2012 Rise Set
Actual Time 8:02 AM PST 4:24 PM PST
Civil Twilight 7:26 AM PST 5:00 PM PST
Nautical Twilight 6:46 AM PST 5:40 PM PST
Astronomical Twilight 6:08 AM PST 6:18 PM PST
Moon 1:26 PM PST (12/23) 3:40 AM PST (12/23)
Length of Visible Light 9h 34m
Length of Day
8h 21m
Waxing Gibbous, 82% of the Moon is Illuminated
Dec 23
Waxing Gibbous
Dec 28
Full
Jan 4
Last Quarter
Jan 11
New
Jan 18
First Quarter

Hourly Weather History & Observations

Time (PST) Temp. Windchill Dew Point Humidity Pressure Visibility Wind Dir Wind Speed Gust Speed Precip Events Conditions
12:53 AM 37.0 °F 34.5 °F 35.1 °F 93% 29.66 in 10.0 mi South 3.5 mph - N/A   Scattered Clouds
1:53 AM 36.0 °F - 35.1 °F 97% 29.67 in 10.0 mi Calm Calm - N/A   Scattered Clouds
2:53 AM 37.0 °F 31.0 °F 35.1 °F 93% 29.67 in 10.0 mi SW 8.1 mph - N/A   Mostly Cloudy
3:53 AM 39.0 °F 34.8 °F 35.1 °F 86% 29.66 in 10.0 mi SW 5.8 mph - N/A   Mostly Cloudy
4:53 AM 39.9 °F 33.9 °F 36.0 °F 86% 29.66 in 10.0 mi West 9.2 mph - N/A   Mostly Cloudy
5:53 AM 39.0 °F - 36.0 °F 89% 29.67 in 10.0 mi Calm Calm - N/A   Overcast
6:53 AM 39.9 °F 35.8 °F 36.0 °F 86% 29.67 in 10.0 mi West 5.8 mph - 0.00 in   Overcast
7:53 AM 37.0 °F - 35.1 °F 93% 29.67 in 10.0 mi Calm Calm - N/A   Scattered Clouds
8:53 AM 37.9 °F 35.5 °F 35.1 °F 89% 29.67 in 10.0 mi South 3.5 mph - N/A   Mostly Cloudy
9:53 AM 42.1 °F 39.2 °F 39.0 °F 89% 29.66 in 10.0 mi SW 4.6 mph - N/A   Clear
10:44 AM 42.1 °F 40.2 °F 37.9 °F 85% 29.64 in 10.0 mi SW 3.5 mph - N/A   Mostly Cloudy
10:53 AM 42.1 °F 39.2 °F 37.9 °F 85% 29.65 in 10.0 mi SW 4.6 mph - N/A   Mostly Cloudy
11:03 AM 42.1 °F 40.2 °F 37.9 °F 85% 29.63 in 10.0 mi SW 3.5 mph - N/A   Scattered Clouds
11:53 AM 43.0 °F - 37.9 °F 82% 29.62 in 10.0 mi Calm Calm - N/A   Mostly Cloudy
12:53 PM 45.0 °F - 37.0 °F 74% 29.62 in 10.0 mi Calm Calm - N/A   Mostly Cloudy
1:53 PM 44.1 °F 40.8 °F 39.9 °F 85% 29.61 in 10.0 mi WNW 5.8 mph - N/A   Overcast
2:26 PM 44.1 °F 40.8 °F 39.0 °F 82% 29.61 in 10.0 mi West 5.8 mph - N/A   Overcast
2:44 PM 44.1 °F 41.5 °F 39.0 °F 82% 29.62 in 10.0 mi WSW 4.6 mph - N/A   Overcast
2:53 PM 44.1 °F - 39.0 °F 82% 29.62 in 10.0 mi Calm Calm - N/A   Overcast
3:16 PM 44.1 °F - 39.9 °F 85% 29.63 in 10.0 mi Calm Calm - 0.00 in Rain Light Rain
3:23 PM 44.1 °F 42.5 °F 39.9 °F 85% 29.63 in 10.0 mi SW 3.5 mph - 0.00 in Rain Light Rain
3:43 PM 43.0 °F 39.5 °F 39.0 °F 86% 29.62 in 10.0 mi WSW 5.8 mph - 0.00 in   Overcast
3:53 PM 43.0 °F 40.3 °F 37.9 °F 82% 29.63 in 10.0 mi WSW 4.6 mph - 0.00 in   Overcast
4:53 PM 42.1 °F 39.2 °F 37.9 °F 85% 29.65 in 10.0 mi SW 4.6 mph - N/A   Overcast
5:53 PM 41.0 °F 37.1 °F 37.0 °F 86% 29.66 in 10.0 mi SW 5.8 mph - N/A   Overcast
6:32 PM 42.1 °F 37.7 °F 37.0 °F 82% 29.66 in 10.0 mi WSW 6.9 mph - N/A   Overcast
6:53 PM 42.1 °F 37.1 °F 37.0 °F 82% 29.68 in 10.0 mi WSW 8.1 mph - N/A   Overcast
7:53 PM 41.0 °F 35.8 °F 36.0 °F 82% 29.70 in 10.0 mi West 8.1 mph - N/A   Mostly Cloudy
8:19 PM 41.0 °F 36.4 °F 37.0 °F 86% 29.70 in 10.0 mi WSW 6.9 mph - N/A   Mostly Cloudy
8:53 PM 42.1 °F 36.6 °F 36.0 °F 79% 29.72 in 10.0 mi WSW 9.2 mph - N/A   Overcast
9:53 PM 41.0 °F 35.8 °F 36.0 °F 82% 29.74 in 10.0 mi West 8.1 mph - N/A   Overcast
10:34 PM 41.0 °F 34.3 °F 37.0 °F 86% 29.77 in 10.0 mi West 11.5 mph - N/A   Overcast
10:53 PM 41.0 °F 34.7 °F 37.0 °F 86% 29.79 in 10.0 mi West 10.4 mph - 0.00 in Rain Light Rain
11:27 PM 41.0 °F 37.1 °F 37.9 °F 89% 29.80 in 10.0 mi West 5.8 mph - 0.00 in Rain Light Rain
11:53 PM 39.9 °F 35.8 °F 37.0 °F 89% 29.82 in 10.0 mi West 5.8 mph - 0.00 in Rain Light Rain